Regional Weather Roundup
Issued by NWS

Home | Current Version | Previous Version | Text Only | Print | Product List | Glossary Off
Versions: 1 2 3 4 5 6 7 8 9 10 11 12 13 14 15 16 17 18 19 20 21 22 23 24 25 26 27 28 29 30 31 32 33 34 35 36 37 38 39 40 41 42 43 44 45 46 47 48 49 50

000
ASUS43 KFSD 261102
RWRSD

WEATHER ROUNDUP FOR SOUTH DAKOTA
NATIONAL WEATHER SERVICE SIOUX FALLS SD
600 AM CDT WED APR 26 2017

NOTE: "FAIR" INDICATES FEW OR NO CLOUDS BELOW 12,000 FEET WITH NO
SIGNIFICANT WEATHER AND/OR OBSTRUCTIONS TO VISIBILITY.


SDZ001>005-009-010-012>017-261200-
NORTHWEST AND NORTH CENTRAL SOUTH DAKOTA

CITY           SKY/WX    TMP DP  RH WIND       PRES   REMARKS
BUFFALO          N/A     31  25  78 NW10      29.80S WCI  22
FAITH            N/A     31  27  85 N14       29.84S WCI  21
MOBRIDGE       CLOUDY    34  24  67 N16       29.79R WCI  24
$$

SDZ012>016-024>037-041>051-057-063-072>074-261200-
SOUTHWEST AND SOUTH CENTRAL SOUTH DAKOTA

CITY           SKY/WX    TMP DP  RH WIND       PRES   REMARKS
RAPID CTY ARPT CLOUDY    28  23  81 NW20      29.85S WCI  15
PIERRE         CLOUDY    32  28  85 NW12      29.79R WCI  23
CUSTER         CLOUDY    21  18  88 SW3       29.75F
ELLSWORTH AFB  CLOUDY    28  26  95 NW20      29.84S WCI  14
PHILIP         CLOUDY    32  29  88 NW12      29.84S WCI  23
PINE RIDGE     CLOUDY    29  25  85 NW7       29.85R WCI  22
SPEARFISH      CLOUDY    25  23  93 NW13      29.85S WCI  13
WINNER         CLOUDY    33  29  85 NW18      29.78R WCI  22
$$

SDZ004>011-016>023-039-040-261200-
NORTHEAST SOUTH DAKOTA

CITY           SKY/WX    TMP DP  RH WIND       PRES   REMARKS
ABERDEEN       CLOUDY    30  26  85 N20       29.74S WCI  17
WATERTOWN      CLOUDY    30  28  92 N20       29.65R WCI  17
BROOKINGS      CLOUDY    32  31  96 N15       29.64R WCI  22
SISSETON         N/A     31  30  96 N18       29.68S WCI  19
$$

SDZ017-020-022-023-036>040-048>070-261200-
SOUTHEAST SOUTH DAKOTA

CITY           SKY/WX    TMP DP  RH WIND       PRES   REMARKS
SIOUX FALLS    DRIZZLE   35  34  96 NW14      29.64R WCI  26
HURON          CLOUDY    31  29  92 N15       29.72R WCI  20
CHAMBERLAIN    CLOUDY    34  31  88 NW16      29.77R WCI  24
MITCHELL       CLOUDY    33  31  92 NW16      29.73R WCI  23
YANKTON        CLOUDY    34  28  80 NW17      29.70R WCI  23
$$

ABBREVIATIONS USED IN REMARKS
   TC - TEMPERATURE IN CELSIUS
  WCI - WIND CHILL INDEX
   HX - HEAT INDEX
  VSB - VISIBILITY





USA.gov is the U.S. government's official web portal to all federal, state and local government web resources and services.